Time,TemperatureF,DewpointF,PressureIn,WindDirection,WindDirectionDegrees,WindSpeedMPH,WindSpeedGustMPH,Humidity,HourlyPrecipIn,Conditions,Clouds,dailyrainin,SolarRadiationWatts/m^2,SoftwareType,DateUTC
2013-04-27 00:03:00,59.0,37.0,-100.00,NW,311,2.0,4.0,44,0.00,,,0.00,0.000000,,2013-04-27 04:03:00,
2013-04-27 00:33:00,57.0,42.0,-100.00,WNW,303,4.0,6.0,58,0.00,,,0.00,0.000000,,2013-04-27 04:33:00,
2013-04-27 00:43:00,57.0,42.0,-100.00,WNW,303,4.0,6.0,58,0.00,,,0.00,0.000000,,2013-04-27 04:43:00,
2013-04-27 00:53:00,57.0,42.0,-100.00,WNW,303,4.0,6.0,58,0.00,,,0.00,0.000000,,2013-04-27 04:53:00,
2013-04-27 01:02:00,57.0,42.0,-100.00,WNW,303,4.0,6.0,58,0.00,,,0.00,0.000000,,2013-04-27 05:02:00,
2013-04-27 01:32:00,57.0,42.0,-100.00,WNW,301,3.0,7.0,57,0.00,,,0.00,0.000000,,2013-04-27 05:32:00,
2013-04-27 01:42:00,57.0,42.0,-100.00,WNW,301,3.0,7.0,57,0.00,,,0.00,0.000000,,2013-04-27 05:42:00,
2013-04-27 01:52:00,57.0,42.0,-100.00,WNW,301,3.0,7.0,57,0.00,,,0.00,0.000000,,2013-04-27 05:52:00,
2013-04-27 02:02:00,57.0,42.0,-100.00,WNW,301,3.0,7.0,57,0.00,,,0.00,0.000000,,2013-04-27 06:02:00,
2013-04-27 02:32:00,56.0,44.0,-100.00,WNW,301,4.0,5.0,63,0.00,,,0.00,0.000000,,2013-04-27 06:32:00,
2013-04-27 02:42:00,56.0,44.0,-100.00,WNW,301,4.0,5.0,63,0.00,,,0.00,0.000000,,2013-04-27 06:42:00,
2013-04-27 02:52:00,56.0,44.0,-100.00,WNW,301,4.0,5.0,63,0.00,,,0.00,0.000000,,2013-04-27 06:52:00,
2013-04-27 03:02:00,56.0,44.0,-100.00,WNW,301,4.0,5.0,63,0.00,,,0.00,0.000000,,2013-04-27 07:02:00,
2013-04-27 03:32:00,55.0,45.0,-100.00,WNW,298,3.0,5.0,68,0.00,,,0.00,0.000000,,2013-04-27 07:32:00,
2013-04-27 03:42:00,55.0,45.0,-100.00,WNW,298,3.0,5.0,68,0.00,,,0.00,0.000000,,2013-04-27 07:42:00,
2013-04-27 03:52:00,55.0,45.0,-100.00,WNW,298,3.0,5.0,68,0.00,,,0.00,0.000000,,2013-04-27 07:52:00,
2013-04-27 04:02:00,55.0,45.0,-100.00,WNW,298,3.0,5.0,68,0.00,,,0.00,0.000000,,2013-04-27 08:02:00,
2013-04-27 04:33:00,52.0,48.0,-100.00,WNW,300,3.0,5.0,85,0.01,,,0.01,0.000000,,2013-04-27 08:33:00,
2013-04-27 04:42:00,52.0,48.0,-100.00,WNW,300,3.0,5.0,85,0.01,,,0.01,0.000000,,2013-04-27 08:42:00,
2013-04-27 04:52:00,52.0,48.0,-100.00,WNW,300,3.0,5.0,85,0.01,,,0.01,0.000000,,2013-04-27 08:52:00,
2013-04-27 05:01:00,52.0,48.0,-100.00,WNW,300,3.0,5.0,85,0.01,,,0.01,0.000000,,2013-04-27 09:01:00,
2013-04-27 05:33:00,51.0,49.0,-100.00,NW,304,3.0,5.0,94,0.03,,,0.04,0.000000,,2013-04-27 09:33:00,
2013-04-27 05:43:00,51.0,49.0,-100.00,NW,304,3.0,5.0,94,0.03,,,0.04,0.000000,,2013-04-27 09:43:00,
2013-04-27 05:53:00,51.0,49.0,-100.00,NW,304,3.0,5.0,94,0.03,,,0.04,0.000000,,2013-04-27 09:53:00,
2013-04-27 06:03:00,51.0,49.0,-100.00,NW,304,3.0,5.0,94,0.03,,,0.04,0.000000,,2013-04-27 10:03:00,
2013-04-27 06:33:00,51.0,50.0,-100.00,WNW,299,3.0,5.0,96,0.05,,,0.09,0.000000,,2013-04-27 10:33:00,
2013-04-27 06:42:00,51.0,50.0,-100.00,WNW,299,3.0,5.0,96,0.05,,,0.09,0.000000,,2013-04-27 10:42:00,
2013-04-27 06:52:00,51.0,50.0,-100.00,WNW,299,3.0,5.0,96,0.05,,,0.09,0.000000,,2013-04-27 10:52:00,
2013-04-27 07:02:00,51.0,50.0,-100.00,WNW,299,3.0,5.0,96,0.05,,,0.09,0.000000,,2013-04-27 11:02:00,
2013-04-27 07:32:00,51.0,50.0,-100.00,WNW,285,2.0,5.0,98,0.04,,,0.13,0.000000,,2013-04-27 11:32:00,
2013-04-27 07:42:00,51.0,50.0,-100.00,WNW,285,2.0,5.0,98,0.04,,,0.13,0.000000,,2013-04-27 11:42:00,
2013-04-27 07:52:00,51.0,50.0,-100.00,WNW,285,2.0,5.0,98,0.04,,,0.13,0.000000,,2013-04-27 11:52:00,
2013-04-27 08:01:00,51.0,50.0,-100.00,WNW,285,2.0,5.0,98,0.04,,,0.13,0.000000,,2013-04-27 12:01:00,
2013-04-27 08:32:00,52.0,51.0,-100.00,NE,40,0.0,4.0,98,0.02,,,0.15,40.000000,,2013-04-27 12:32:00,
2013-04-27 08:42:00,52.0,51.0,-100.00,NE,40,0.0,4.0,98,0.02,,,0.15,40.000000,,2013-04-27 12:42:00,
2013-04-27 08:52:00,52.0,51.0,-100.00,NE,40,0.0,4.0,98,0.02,,,0.15,40.000000,,2013-04-27 12:52:00,
2013-04-27 09:02:00,52.0,51.0,-100.00,NE,40,0.0,4.0,98,0.02,,,0.15,40.000000,,2013-04-27 13:02:00,
2013-04-27 09:32:00,54.0,53.0,-100.00,WSW,257,0.0,2.0,98,0.00,,,0.15,101.000000,,2013-04-27 13:32:00,
2013-04-27 09:42:00,54.0,53.0,-100.00,WSW,257,0.0,2.0,98,0.00,,,0.15,101.000000,,2013-04-27 13:42:00,
2013-04-27 09:52:00,54.0,53.0,-100.00,WSW,257,0.0,2.0,98,0.00,,,0.15,101.000000,,2013-04-27 13:52:00,
2013-04-27 10:02:00,54.0,53.0,-100.00,WSW,257,0.0,2.0,98,0.00,,,0.15,101.000000,,2013-04-27 14:02:00,
2013-04-27 10:32:00,57.0,54.0,-100.00,SE,134,1.0,3.0,91,0.00,,,0.15,222.000000,,2013-04-27 14:32:00,
2013-04-27 10:42:00,57.0,54.0,-100.00,SE,134,1.0,3.0,91,0.00,,,0.15,222.000000,,2013-04-27 14:42:00,
2013-04-27 10:52:00,57.0,54.0,-100.00,SE,134,1.0,3.0,91,0.00,,,0.15,222.000000,,2013-04-27 14:52:00,
2013-04-27 11:01:00,57.0,54.0,-100.00,SE,134,1.0,3.0,91,0.00,,,0.15,222.000000,,2013-04-27 15:01:00,
2013-04-27 11:33:00,59.0,55.0,-100.00,WSW,258,1.0,3.0,86,0.00,,,0.15,234.000000,,2013-04-27 15:33:00,
2013-04-27 11:43:00,59.0,55.0,-100.00,WSW,258,1.0,3.0,86,0.00,,,0.15,234.000000,,2013-04-27 15:43:00,
2013-04-27 11:53:00,59.0,55.0,-100.00,WSW,258,1.0,3.0,86,0.00,,,0.15,234.000000,,2013-04-27 15:53:00,
2013-04-27 12:03:00,59.0,55.0,-100.00,WSW,258,1.0,3.0,86,0.00,,,0.15,234.000000,,2013-04-27 16:03:00,
2013-04-27 12:33:00,56.0,52.0,-100.00,WNW,286,1.0,4.0,87,0.01,,,0.16,127.000000,,2013-04-27 16:33:00,
2013-04-27 12:42:00,56.0,52.0,-100.00,WNW,286,1.0,4.0,87,0.01,,,0.16,127.000000,,2013-04-27 16:42:00,
2013-04-27 12:53:00,56.0,52.0,-100.00,WNW,286,1.0,4.0,87,0.01,,,0.16,127.000000,,2013-04-27 16:53:00,
2013-04-27 13:02:00,56.0,52.0,-100.00,WNW,286,1.0,4.0,87,0.01,,,0.16,127.000000,,2013-04-27 17:02:00,
2013-04-27 13:32:00,52.0,50.0,-100.00,NW,318,2.0,5.0,94,0.04,,,0.20,54.000000,,2013-04-27 17:32:00,
2013-04-27 13:42:00,52.0,50.0,-100.00,NW,318,2.0,5.0,94,0.04,,,0.20,54.000000,,2013-04-27 17:42:00,
2013-04-27 13:53:00,52.0,50.0,-100.00,NW,318,2.0,5.0,94,0.04,,,0.20,54.000000,,2013-04-27 17:53:00,
2013-04-27 14:02:00,52.0,50.0,-100.00,NW,318,2.0,5.0,94,0.04,,,0.20,54.000000,,2013-04-27 18:02:00,
2013-04-27 14:32:00,51.0,50.0,-100.00,NW,313,5.0,7.0,95,0.03,,,0.23,40.000000,,2013-04-27 18:32:00,
2013-04-27 14:42:00,51.0,50.0,-100.00,NW,313,5.0,7.0,95,0.03,,,0.23,40.000000,,2013-04-27 18:42:00,
2013-04-27 14:52:00,51.0,50.0,-100.00,NW,313,5.0,7.0,95,0.03,,,0.23,40.000000,,2013-04-27 18:52:00,
2013-04-27 15:02:00,51.0,50.0,-100.00,NW,313,5.0,7.0,95,0.03,,,0.23,40.000000,,2013-04-27 19:02:00,
2013-04-27 15:32:00,52.0,50.0,-100.00,NW,316,5.0,7.0,92,0.00,,,0.23,92.000000,,2013-04-27 19:32:00,
2013-04-27 15:42:00,52.0,50.0,-100.00,NW,316,5.0,7.0,92,0.00,,,0.23,92.000000,,2013-04-27 19:42:00,
2013-04-27 15:53:00,52.0,50.0,-100.00,NW,316,5.0,7.0,92,0.00,,,0.23,92.000000,,2013-04-27 19:53:00,
2013-04-27 16:02:00,52.0,50.0,-100.00,NW,316,5.0,7.0,92,0.00,,,0.23,92.000000,,2013-04-27 20:02:00,
2013-04-27 16:32:00,56.0,54.0,-100.00,ESE,118,1.0,6.0,92,0.00,,,0.23,225.000000,,2013-04-27 20:32:00,
2013-04-27 16:42:00,56.0,54.0,-100.00,ESE,118,1.0,6.0,92,0.00,,,0.23,225.000000,,2013-04-27 20:42:00,
2013-04-27 16:52:00,56.0,54.0,-100.00,ESE,118,1.0,6.0,92,0.00,,,0.23,225.000000,,2013-04-27 20:52:00,
2013-04-27 17:02:00,56.0,54.0,-100.00,ESE,118,1.0,6.0,92,0.00,,,0.23,225.000000,,2013-04-27 21:02:00,
2013-04-27 17:33:00,55.0,53.0,-100.00,SE,126,2.0,4.0,92,0.00,,,0.23,143.000000,,2013-04-27 21:33:00,
2013-04-27 17:43:00,55.0,53.0,-100.00,SE,126,2.0,4.0,92,0.00,,,0.23,143.000000,,2013-04-27 21:43:00,
2013-04-27 17:53:00,55.0,53.0,-100.00,SE,126,2.0,4.0,92,0.00,,,0.23,143.000000,,2013-04-27 21:53:00,
2013-04-27 18:03:00,55.0,53.0,-100.00,SE,126,2.0,4.0,92,0.00,,,0.23,143.000000,,2013-04-27 22:03:00,
2013-04-27 18:32:00,54.0,53.0,-100.00,East,96,1.0,4.0,95,0.00,,,0.23,73.000000,,2013-04-27 22:32:00,
2013-04-27 18:42:00,54.0,53.0,-100.00,East,96,1.0,4.0,95,0.00,,,0.23,73.000000,,2013-04-27 22:42:00,
2013-04-27 18:53:00,54.0,53.0,-100.00,East,96,1.0,4.0,95,0.00,,,0.23,73.000000,,2013-04-27 22:53:00,
2013-04-27 19:02:00,54.0,53.0,-100.00,East,96,1.0,4.0,95,0.00,,,0.23,73.000000,,2013-04-27 23:02:00,
2013-04-27 19:32:00,53.0,52.0,-100.00,ESE,110,1.0,5.0,96,0.00,,,0.23,37.000000,,2013-04-27 23:32:00,
2013-04-27 19:42:00,53.0,52.0,-100.00,ESE,110,1.0,5.0,96,0.00,,,0.23,37.000000,,2013-04-27 23:42:00,
2013-04-27 19:52:00,53.0,52.0,-100.00,ESE,110,1.0,5.0,96,0.00,,,0.23,37.000000,,2013-04-27 23:52:00,
2013-04-27 20:02:00,53.0,52.0,-100.00,ESE,110,1.0,5.0,96,0.00,,,0.23,37.000000,,2013-04-28 00:02:00,
2013-04-27 21:32:00,52.0,51.0,-100.00,East,85,3.0,8.0,96,-99.99,,,0.23,0.000000,,2013-04-28 01:32:00,
2013-04-27 21:42:00,52.0,51.0,-100.00,East,85,3.0,8.0,96,-99.99,,,0.23,0.000000,,2013-04-28 01:42:00,
2013-04-27 21:52:00,52.0,51.0,-100.00,East,85,3.0,8.0,96,-99.99,,,0.23,0.000000,,2013-04-28 01:52:00,
2013-04-27 22:02:00,52.0,51.0,-100.00,East,85,3.0,8.0,96,-99.99,,,0.23,0.000000,,2013-04-28 02:02:00,
2013-04-27 22:32:00,52.0,51.0,-100.00,East,92,3.0,8.0,96,0.00,,,0.23,0.000000,,2013-04-28 02:32:00,
2013-04-27 22:42:00,52.0,51.0,-100.00,East,92,3.0,8.0,96,0.00,,,0.23,0.000000,,2013-04-28 02:42:00,
2013-04-27 22:52:00,52.0,51.0,-100.00,East,92,3.0,8.0,96,0.00,,,0.23,0.000000,,2013-04-28 02:52:00,
2013-04-27 23:01:00,52.0,51.0,-100.00,East,92,3.0,8.0,96,0.00,,,0.23,0.000000,,2013-04-28 03:01:00,
2013-04-27 23:33:00,52.0,51.0,-100.00,East,97,2.0,8.0,96,0.00,,,0.23,0.000000,,2013-04-28 03:33:00,
2013-04-27 23:43:00,52.0,51.0,-100.00,East,97,2.0,8.0,96,0.00,,,0.23,0.000000,,2013-04-28 03:43:00,
2013-04-27 23:53:00,52.0,51.0,-100.00,East,97,2.0,8.0,96,0.00,,,0.23,0.000000,,2013-04-28 03:53:00,